Regional Weather Roundup
Issued by NWS Wakefield, VA

Home | Current Version | Previous Version | Graphics & Text | Print | Product List | Glossary On
Versions: 1 2 3 4 5 6 7 8 9 10 11 12 13 14 15 16 17 18 19 20 21 22 23 24 25 26 27 28 29 30 31 32 33 34 35 36 37 38 39 40 41 42 43 44 45 46 47 48 49 50
000
ASUS41 KAKQ 282014
RWRAKQ

REGIONAL WEATHER ROUNDUP
NATIONAL WEATHER SERVICE WAKEFIELD VA
400 PM EDT SAT MAR 28 2015

Note: "fair" indicates few or no clouds below 12,000 feet with no
significant weather and/or obstructions to visibility. * = Denotes
station may not report precipitation (e.g., rain,snow,etc.),
thunder or fog.

VAZ042-051-052>054-056-282100-
NORTHERN VIRGINIA

CITY           SKY/WX    TMP DP  RH WIND       PRES   REMARKS
WASH NATIONAL  PTSUNNY   36  11  35 W14G26    30.05R
DULLES         PTSUNNY   34  12  40 NW20G29   30.05R WCI  23
FORT BELVOIR   MOSUNNY   34   8  34 W15G26    30.05R WCI  24
QUANTICO       MOSUNNY   35   7  31 N18G40    30.08R WCI  24
FREDERICKSBRG* MOSUNNY   38  11  32 NW14G24   30.06R
STAFFORD*      MOSUNNY   35   6  30 NW18G28   30.11R WCI  24
WARRENTON      MOSUNNY   36  17  46 N15G30    30.07S
CULPEPER*      FAIR      36   9  32 NW13G18   30.09R
MANASSAS*      PTSUNNY   34  10  37 NW22G30   30.07R WCI  22
LEESBURG*      CLOUDY    32  16  51 NW18G31   30.06S WCI  20
WINCHESTER     PTSUNNY   32   1  27 NW24G30   30.06R WCI  19
FRONT ROYAL*   CLOUDY    32   7  34 NW16G23   30.07R WCI  21
LURAY*         MOCLDY    34  10  37 W9G31     30.07S
$$

VAZ048-049-060>072-079>083-282100-
CENTRAL AND SOUTH CENTRAL VIRGINIA

CITY           SKY/WX    TMP DP  RH WIND       PRES   REMARKS
RICHMOND       PTSUNNY   40   9  28 NW15      30.02R
CHESTERFIELD*  MOCLDY    41  10  28 NW18      30.04R
PETERSBURG*    PTSUNNY   42  11  28 NW9       30.03S
HANOVER        PTSUNNY   41  12  30 W13G21    30.04R
TAPPAHANNOCK*  MOSUNNY   40   1  20 NW10G18   30.03R
QUINTON*       MOCLDY    39  10  30 NW12G18   30.02R
CHARLOTTSVILLE PTSUNNY   35  10  35 N12G21    30.05R
GORDONSVILLE*  MOCLDY    35   9  34 NW7G21    30.05R
ORANGE*        SUNNY     36  10  35 W13G28    30.08R
LOUISA*        MOSUNNY   39  10  30 N10G18    30.02R
BUMPASS*       MOCLDY    37  10  33 N7G17     30.03S
FARMVILLE*     PTSUNNY   42   9  25 W8        30.02S
CREWE*         CLOUDY    40  10  28 MISG      30.02S
FORT PICKETT*  CLOUDY    39  16  40 NW12G18   30.03R
CHASE CITY*    FAIR      42  16  34 NW12G21   30.03S
CLARKSVILLE*   MOCLDY    43  14  31 NW10G18   30.03S
SOUTH HILL*    PTSUNNY   41  15  34 W14G23    30.09R
LAWRENCEVILLE* CLOUDY    39  23  52 NW8G16    30.03R
EMPORIA*       CLOUDY    37  23  56 W9        30.05S
$$

VAZ088>098-282100-
SOUTHEAST VIRGINIA

CITY           SKY/WX    TMP DP  RH WIND       PRES   REMARKS
NORFOLK        CLOUDY    40  19  43 W12G17    30.01R
VIRGINIA BEACH CLOUDY    42  22  44 NW16G23   30.00R
NORFOLK NAVAL  NOT AVBL
WEST POINT*    PTSUNNY   44   5  19 NW10G16   30.03S
SALUDA*        FAIR      38  12  35 NW20G26   30.00S
NEWPORT NEWS   CLOUDY    43  15  32 W16G24    30.01S
LANGLEY AFB    CLOUDY    39  18  43 NW13      30.00S
FORT EUSTIS    CLOUDY    41  20  42 NW17G26   30.00R
WILLIAMSBURG*  PTSUNNY   43  18  36 W13G22    30.02S
HR EXEC AP*    CLOUDY    39  21  48 W9        30.04R
FRANKLIN*      CLOUDY    39  22  50 W13       30.04S
WAKEFIELD      CLOUDY    40  17  39 W9G20     30.03S
$$

VAZ020-022-025-037-045-282100-
WEST CENTRAL AND SOUTHWEST VIRGINIA

CITY           SKY/WX    TMP DP  RH WIND       PRES   REMARKS
STAUNTON*      CLOUDY    33   6  32 N17G25    30.06R WCI  22
WAYNESBORO*    MOCLDY    33   7  33 NW16G26   30.02R WCI  23
HOT SPRINGS VA MOSUNNY   21   3  44 NW16G25   29.89R WCI   7
LYNCHBURG      SUNNY     37   8  30 W9G20     30.05S
DANVILLE       SUNNY     45  13  27 NW18G24   30.05R
SOUTH BOSTON*  FAIR      43  10  26 NW8G23    30.05R
MARTINSVILLE   SUNNY     43   9  24 NW10G17   30.07F
ROANOKE        MOSUNNY   36   5  27 W15G29    30.08F
BLACKSBURG     SUNNY     30   8  39 W12G23    30.07S WCI  21
DUBLIN*        MOSUNNY   34   8  33 NW13      30.06R WCI  25
MARION*        MOSUNNY   34   6  30 W21G26    30.05S WCI  22
HILLSVILLE*    SUNNY     32   8  36 W23G30    29.99S WCI  19
RICHLANDS*     FAIR      31   7  36 NW12G20   30.07R WCI  22
WISE*          SUNNY     34  10  37 N8G18     30.10R
ABINGDON*      MOSUNNY   37  10  32 NW13G18   30.10S
$$

MDZ021>025-VAZ099-100-282100-
SOUTHERN MARYLAND AND THE DELMARVA PENINSULA

CITY           SKY/WX    TMP DP  RH WIND       PRES   REMARKS
PATUXENT RIVER PTSUNNY   36  11  35 NW23G31   30.01R WCI  24
BAY BRIDGE APT   N/A     34  18  51 NW20      30.01R WCI  22
LEONARDTOWN    PTSUNNY   36  10  35 W17G23    30.02S
DOVER          FRZ RAIN  36  21  55 W17G25    29.95R
GEORGETOWN     FLURRIES  34  23  64 W13G20    29.97R WCI  25
EASTON         MOSUNNY   36  19  51 NW17G35   30.03R
CAMBRIDGE      MOSUNNY   36  18  48 NW13G25   29.99S
SALISBURY      CLOUDY    37  20  50 W16G25    29.97R
OCEAN CITY     CLOUDY    34  20  56 NW9G21    29.97R
WALLOPS ISLAND MOSUNNY   38   9  30 NW18G29   29.98R
ACCOMACK*      PTSUNNY   37  10  32 NW24G38   29.99S
$$

NCZ012>017-030>032-282100-
NORTH CENTRAL AND EASTERN NORTH CAROLINA

CITY           SKY/WX    TMP DP  RH WIND       PRES   REMARKS
ROANOKE RAPIDS FAIR      41  18  38 W13G20    30.04S
RALEIGH        MOSUNNY   45  13  27 VRB6G16   30.04F
ELIZABETH CITY CLOUDY    39  29  67 NW14      30.03R
AHOSKIE*       PTSUNNY   40  23  50 N8        30.04S
EDENTON*       CLOUDY    41  29  61 NW10G17   30.03R
CURRITUCK*     CLOUDY    39  24  55 W12G17    30.03R
KILL DEVIL HLS PTSUNNY   43  29  58 W10       30.00R
MANTEO         PTSUNNY   43  29  57 NW13G20   30.02R
CAPE HATTERAS  PTSUNNY   45  34  65 NW12G18   30.01R
TARBORO*       FAIR      46  18  33 NW10G17   30.05R
GOLDSBORO      MOSUNNY   48  27  45 NW14G22   30.01S
WASHINGTON     MOSUNNY   45  27  49 NW9G16    30.02S
GREENVILLE     PTSUNNY   45  21  39 W8G20     30.04S
NEW BERN       PTSUNNY   47  29  49 NW12      30.02R
WILMINGTON     MOSUNNY   51  29  42 W15       30.01F
$$

VAZ048-282100-
ELSEWHERE

CITY           SKY/WX    TMP DP  RH WIND       PRES   REMARKS
HARRISBURG PA  FLURRIES  31  17  56 N17G32    30.00R WCI  19
BALTIMORE      FLURRIES  33  14  45 NW21G30   30.01R WCI  21
ANNAPOLIS      CLOUDY    34  16  47 W13G23    30.01R WCI  25
ANDREWS AFB    PTSUNNY   33  10  39 NW18G29   30.01R WCI  22
PHILADELPHIA   CLOUDY    40  13  33 NW20G29   29.92R
HENDERSON NC   SUNNY     43   9  25 NW15G21   30.04R
GREENSBORO     MOSUNNY   45   9  23 NW20      30.03S
ROCKY MOUNT    SUNNY     45  17  32 NW9       30.04R
$$

VAZ100-282100-
MARINE

STATION/POSITION TIME  TEMP    WIND        PRES    WAVE   SWELL
                       AIR SEA DIR/SP/G            HT/PER HT/PER
                 (UTC) (F)     (DEG/KT/KT) (MB)    (FT/S) (FT/S)
BRANDYWINE LGT   1900   34 40  330/ 13/ 20 1013.2R
CAPE MAY NJ      1900   35 43  300/ 19/ 25 1012.6R
LEWES DE         1900   34 43  300/ 16/ 20 1013.5S
15NM E FENWICK I 1950   34 40              1013.2R   5/ 5
OCEAN-CITY-INLET 1900   35 40  330/ 17/ 23 1013.5R
WACHAPREAGUE VA  1900   37 47  330/ 12/ 19 1015.2S
THOMAS POINT MD  2000                        N/A
COVE POINT MD    1900   33     350/ 19/ 24 1015.5S
SOLOMONS ISLAND  1900      44                N/A
BISHOPS HEAD MD  1912          310/ 17/ 20   N/A
PINEY POINT MD   1912          320/ 22/ 27   N/A
CAMBRIDGE MD     1900   34 44  290/ 13/ 19 1015.5R
LEWISETTA VA     1900   34 46              1016.2R
RAPPAHANNOCK LGT 1900          320/ 18/ 20 1016.1R
STINGRAY PT      2000   39 45  320/ 17/ 25   N/A     2/ 3
YORK RVR RNG VA  1900   38     290/ 15/ 18 1015.0F
YORKTOWN VA      1900   38 47  310/ 13/ 21 1015.7F
DOMINION TERM VA 1900   38     310/ 16/ 21 1016.0F
KIPTOPEKE VA     1900      49  300/ 17/ 20   N/A
CHES BAY BRIDGE  1900   38 44  290/ 14/ 17 1015.6R
CAPE HENRY VA    1900   38     290/ 16/ 21 1014.5S
CHESAPEAKE LGHT  1900   37     310/ 20/ 22 1016.4R
WILLOUBY STN VA  1900   37     280/ 19/ 22 1016.5S
S CRANEY ISL VA  1900          310/ 11/ 15 1016.2R
CAPE HENRY BUOY  1928      40                N/A     5/ 7   2/11
1ST LANDING BUOY 2000   39     280/ 17/ 21 1015.8R   2/ 3
OFFSHORE WE BUOY 1911      41                N/A     5/11   3/11
64NM E OF VA BCH 1950   39 57  320/ 19/ 23 1014.9R   8/ 8   3/11
DUCK PIER NC     1900   40 42  270/ 10/ 12 1014.9S
44056 DUCK FRF   1911      42                N/A     6/ 8   2/11
OREGON INLET NC  1900   39 45  290/ 11/ 16 1016.2R
HATTERAS NC      1900   44 53  320/ 14/ 16 1016.1R
CAPE LOOKOUT NC  2000   50     270/ 13/ 17 1015.7R
$$



USA.gov is the U.S. government's official web portal to all federal, state and local government web resources and services.